Regional Weather Roundup
Issued by NWS Austin/San Antonio, TX

Home | Current Version | Previous Version | Text Only | Print | Product List | Glossary On
Versions: 1 2 3 4 5 6 7 8 9 10 11 12 13 14 15 16 17 18 19 20 21 22 23 24 25 26 27 28 29 30 31 32 33 34 35 36 37 38 39 40 41 42 43 44 45 46 47 48 49 50
755
ASUS44 KEWX 241210
RWREWX
SOUTH TEXAS REGIONAL WEATHER ROUNDUP
NATIONAL WEATHER SERVICE AUSTIN/SAN ANTONIO TX
700 AM CDT SUN SEP 24 2017

NOTE: "FAIR" INDICATED FEW OR NO CLOUDS BELOW 12,000 FEET WITH NO
SIGNIFICANT WEATHER AND/OR OBSTRUCTIONS TO VISIBILITY.

* - THESE STATIONS ARE NOT NWS OR FAA STATIONS...AND ARE NOT SUBJECT
    TO NWS AND FAA QUALITY CONTROL.

TXZ171-172-183>190-241300-
TEXAS HILL COUNTRY AND EDWARDS PLATEAU

CITY           SKY/WX    TMP DP  RH WIND       PRES   REMARKS
JUNCTION       PTCLDY    71  66  84 E6        29.88S
6HR MIN TEMP:  71; 6HR MAX TEMP:  77;

*LLANO         PTCLDY    70  70 100 CALM      29.92S FOG
BURNET         CLEAR     73  70  90 SE8       29.91F
6HR MIN TEMP:  73; 6HR MAX TEMP:  76;

*HORSESHOE BAY PTCLDY    72  70  94 CALM      29.89S
6HR MIN TEMP:  71; 6HR MAX TEMP:  75;

*KERRVILLE     CLOUDY    73  70  91 S8        29.90R
6HR MIN TEMP:  72; 6HR MAX TEMP:  74;

*FREDERICKSBRG MOCLDY    71  67  86 S5        29.90S
6HR MIN TEMP:  71; 6HR MAX TEMP:  73;

*ROCKSPRINGS   NOT AVBL
*BOERNE STAGE  CLOUDY    72  70  94 SE9       29.90S
*CASTROVILLE   CLOUDY    75  73  95 SE6       29.88S
HONDO          CLOUDY    77  73  87 SE8       29.87R
6HR MIN TEMP:  76; 6HR MAX TEMP:  78;

*UVALDE        MOCLDY    74  71  89 E6        29.87R
6HR MIN TEMP:  74; 6HR MAX TEMP:  76;

DEL RIO        RAIN      75  72  90 E13G20    29.81R FOG
6HR MIN TEMP:  75; 6HR MAX TEMP:  81; 6HR PCP:  0.03;

LAUGHLIN AFB   MOCLDY    76  70  83 SE14      29.83R
6HR MIN TEMP:  76; 6HR MAX TEMP:  80;

CARRIZO SPRGS  MOCLDY    72  72 100 E6        29.82S
*EAGLE PASS      N/A    N/A N/A N/A MISG        N/A
$$

TXZ173-191>194-202-209-217>225-228-241300-
CENTRAL AND SOUTH CENTRAL TEXAS

CITY           SKY/WX    TMP DP  RH WIND       PRES   REMARKS
GEORGETOWN     CLOUDY    73  71  93 SE6       29.91S
6HR MIN TEMP:  73; 6HR MAX TEMP:  77;

AUSTIN/BERGSTM FOG       73  72  96 CALM      29.88S VSB 1/4
6HR MIN TEMP:  68; 6HR MAX TEMP:  73;

AUSTIN/MABRY   CLOUDY    74  72  93 VRB5      29.89S
6HR MIN TEMP:  74; 6HR MAX TEMP:  77;

*AUSTIN/EXEC   FOG       68  68 100 CALM      29.90R VSB<1/4
*LAGO VISTA    CLOUDY    74  73  94 S9        29.90F
6HR MIN TEMP:  74; 6HR MAX TEMP:  76;

SAN MARCOS     MOCLDY    72  70  94 E3        29.89R FOG
6HR MIN TEMP:  70; 6HR MAX TEMP:  73;

NEW BRAUNFELS  CLOUDY    75  73  93 SE7       29.86S
6HR MIN TEMP:  70; 6HR MAX TEMP:  75;

RANDOLPH AFB   CLOUDY    75  75 100 E6        29.87S
6HR MIN TEMP:  73; 6HR MAX TEMP:  75;

PT SAN ANTONIO CLOUDY    76  73  91 E7        29.85S
6HR MIN TEMP:  75; 6HR MAX TEMP:  77;

SAN ANTONIO    CLOUDY    75  72  90 E10       29.87S
6HR MIN TEMP:  75; 6HR MAX TEMP:  77;

STINSON FIELD  CLOUDY    77  74  90 SE6       29.85R
6HR MIN TEMP:  76; 6HR MAX TEMP:  77;

*LA GRANGE     CLEAR     73  72  98 CALM      29.86S FOG
6HR MIN TEMP:  73; 6HR MAX TEMP:  76;

*GIDDINGS        N/A     68  67  98 CALM      29.90R FOG
6HR MIN TEMP:  67; 6HR MAX TEMP:  72;

*GONZALES      CLEAR     73  73 100 CALM      29.87R FOG
6HR MIN TEMP:  73; 6HR MAX TEMP:  75;

$$

TXZ163>164-176>182-195>201-210>213-226-227-235-241300-
SOUTHEAST TEXAS

CITY           SKY/WX    TMP DP  RH WIND       PRES   REMARKS
COLLEGE STN    CLEAR     72  70  93 E3        29.89S
6HR MIN TEMP:  72; 6HR MAX TEMP:  75;

*BRYAN         FOG       66  66 100 CALM      29.90F VSB 1/4
6HR MIN TEMP:  66; 6HR MAX TEMP:  73;

*CALDWELL      PTCLDY    70  70  99 CALM      29.90R FOG
6HR MIN TEMP:  69; 6HR MAX TEMP:  73;

*CROCKETT      PTCLDY    72  72 100 CALM      29.94S FOG
*BRENHAM       FOG       71  71  99 CALM      29.89S VSB 3/4
6HR MIN TEMP:  71; 6HR MAX TEMP:  75;

HUNTSVILLE     CLEAR     72  69  90 CALM      29.90S FOG
6HR MIN TEMP:  72; 6HR MAX TEMP:  78;

CONROE         FOG       67  66  97 CALM      29.90S VSB 3/4
6HR MIN TEMP:  66; 6HR MAX TEMP:  70;

HOUSTON BUSH   PTCLDY    73  72  96 NE3       29.88S
6HR MIN TEMP:  72; 6HR MAX TEMP:  76;

HOUSTON HOBBY  PTCLDY    76  72  87 E3        29.87R
6HR MIN TEMP:  75; 6HR MAX TEMP:  77;

*HOUSTON SW AP CLEAR     71  71  99 CALM      29.88R
6HR MIN TEMP:  69; 6HR MAX TEMP:  73;

PEARLAND       CLEAR     75  70  84 CALM      29.89R
6HR MIN TEMP:  74; 6HR MAX TEMP:  76;

HOUSTON HOOKS  PTCLDY    74  72  93 NE3       29.88S FOG
6HR MIN TEMP:  71; 6HR MAX TEMP:  75;

ELLINGTON FLD  PTCLDY    77  73  88 CALM      29.90R
SUGAR LAND     CLEAR     77  73  87 CALM      29.87R
6HR MIN TEMP:  74; 6HR MAX TEMP:  78;

*HOUSTON EXEC  CLEAR     70  70 100 E5        29.89R FOG
*CLEVELAND MUN FOG       71  71  97 CALM      29.91R VSB 1/4
6HR MIN TEMP:  68; 6HR MAX TEMP:  72;

*WHARTON       CLEAR     71  70  96 E5        29.87S FOG
6HR MIN TEMP:  71; 6HR MAX TEMP:  72;

*COLUMBUS      FAIR      71  69  95 CALM      29.88S FOG
6HR MIN TEMP:  71; 6HR MAX TEMP:  72;

*EAGLE LAKE    SUNNY     70  70 100 NE3       29.87S FOG
6HR MIN TEMP:  69; 6HR MAX TEMP:  73;

$$

TXZ214>216-236>238-241300-
THE UPPER TEXAS COAST

CITY           SKY/WX    TMP DP  RH WIND       PRES   REMARKS
*ORANGE        PTCLDY    73  73 100 E5        29.92S
6HR MIN TEMP:  71; 6HR MAX TEMP:  75;

PORT ARTHUR    CLEAR     76  74  93 E8        29.89R
6HR MIN TEMP:  74; 6HR MAX TEMP:  77;

GALVESTON      PTCLDY    82  74  76 SE8       29.88R
6HR MIN TEMP:  81; 6HR MAX TEMP:  83;

ANGLETON       CLEAR     73  71  93 CALM      29.86S
6HR MIN TEMP:  73; 6HR MAX TEMP:  79;

*BAY CITY      CLEAR     73  73 100 NE3       29.86R
PALACIOS       CLEAR     75  74  96 E6        29.84S
6HR MIN TEMP:  75; 6HR MAX TEMP:  77;

$$

TXZ229>234-239>247-241300-
TEXAS COASTAL BEND AND RIO GRANDE PLAINS

CITY           SKY/WX    TMP DP  RH WIND       PRES   REMARKS
VICTORIA       PTCLDY    74  72  93 E6        29.85R FOG
6HR MIN TEMP:  74; 6HR MAX TEMP:  75;

*BEEVILLE      CLEAR     69  69 100 E5        29.84R FOG
ROCKPORT       PTCLDY    81  75  82 SE10      29.82S
6HR MIN TEMP:  79; 6HR MAX TEMP:  82; 6HR PCP:  0.02;

*PORT ARANSAS  NOT AVBL
*PORT LAVACA   CLEAR     77  73  85 SE7       29.84S
*INGLESIDE     NOT AVBL
CORPUS CHRISTI PTCLDY    76  74  93 E5        29.82R
6HR MIN TEMP:  75; 6HR MAX TEMP:  79;

CORPUS NAS     PTCLDY    81  77  88 SE9       29.81R
6HR MIN TEMP:  80; 6HR MAX TEMP:  84; 6HR PCP: TRACE;

*ROBSTOWN      PTCLDY    75  73  92 E5        29.83R
6HR MIN TEMP:  75; 6HR MAX TEMP:  79;

ALICE          PTCLDY    72  71  97 E5        29.82R FOG
6HR MIN TEMP:  72; 6HR MAX TEMP:  77;

KINGSVILLE NAS PTCLDY    74  73  97 E3        29.82R
6HR MIN TEMP:  73; 6HR MAX TEMP:  78;

COTULLA        MOCLDY    75  72  90 E9        29.83S
6HR MIN TEMP:  75; 6HR MAX TEMP:  79;

*FAITH RANCH   PTCLDY    75  72  88 E7        29.82R
LAREDO         CLEAR     76  73  91 SE9       29.82R
6HR MIN TEMP:  76; 6HR MAX TEMP:  80;

$$

TXZ248>255-241300-
DEEP SOUTH TEXAS

CITY           SKY/WX    TMP DP  RH WIND       PRES   REMARKS
BROWNSVILLE    PTCLDY    76  75  97 SE5       29.81R
6HR MIN TEMP:  76; 6HR MAX TEMP:  79; 6HR PCP: TRACE;

PORT ISABEL    CLOUDY    80  77  90 SE5       29.80S
6HR MIN TEMP:  79; 6HR MAX TEMP:  82; 6HR PCP:  0.02;

*SOUTH PADRE   NOT AVBL
HARLINGEN



USA.gov is the U.S. government's official web portal to all federal, state and local government web resources and services.